Show Low, AZ

2:22 PM MST on April 21, 2018 (GMT -0700)
Show Low Municipal

Weather History for KSOW - February, 2014

Change the Weather History Date:

Saturday, February 8, 2014

  Actual Average Record
Temperature  
Mean Temperature 42 °F -  
Max Temperature 55 °F 45 °F 64 °F (2000)
Min Temperature 30 °F 26 °F 3 °F (1989)
Degree Days  
Heating Degree Days 22    
Moisture  
Dew Point 24 °F    
Average Humidity 53    
Maximum Humidity 86    
Minimum Humidity 29    
Precipitation  
Precipitation 0.00 in - - ()
Sea Level Pressure  
Sea Level Pressure 30.22 in    
Wind  
Wind Speed 12 mph (South)    
Max Wind Speed 18 mph    
Max Gust Speed 25 mph    
Visibility 10 miles    
Events      
Averages and records for this station are not official NWS values.
T = Trace of Precipitation, MM = Missing Value Source: NWS Daily Summary

Daily Weather History Graph

Daily Weather History Graph

Search for Another Location

Airport or City:

Astronomy

Feb. 08, 2014 Rise Set
Actual Time 7:11 AM MST 5:57 PM MST
Civil Twilight 6:45 AM MST 6:23 PM MST
Nautical Twilight 6:16 AM MST 6:52 PM MST
Astronomical Twilight 5:46 AM MST 7:22 PM MST
Moon 12:57 PM MST (2/8) 2:23 AM MST (2/8)
Length of Visible Light 11h 37m
Length of Day
10h 45m
Waxing Gibbous, 69% of the Moon is Illuminated
Feb 8
Waxing Gibbous
Feb 14
Full
Feb 22
Last Quarter
Mar 1
New
Mar 8
First Quarter

Hourly Weather History & Observations

Time (MST) Temp. Windchill Dew Point Humidity Pressure Visibility Wind Dir Wind Speed Gust Speed Precip Events Conditions
12:15 AM 32.0 °F 20.8 °F 24.8 °F 75% 30.18 in 10.0 mi South 17.3 mph - N/A   Clear
12:35 AM 32.0 °F 20.5 °F 24.8 °F 75% 30.18 in 10.0 mi South 18.4 mph - N/A   Clear
12:55 AM 32.0 °F 22.5 °F 24.8 °F 75% 30.18 in 10.0 mi South 12.7 mph - N/A   Clear
1:15 AM 32.0 °F 23.6 °F 24.8 °F 75% 30.18 in 10.0 mi South 10.4 mph - N/A   Clear
1:35 AM 32.0 °F 24.8 °F 26.6 °F 80% 30.18 in 10.0 mi South 8.1 mph - N/A   Clear
1:55 AM 32.0 °F 22.5 °F 26.6 °F 80% 30.17 in 10.0 mi South 12.7 mph - N/A   Clear
2:15 AM 32.0 °F 23.0 °F 26.6 °F 80% 30.19 in 10.0 mi South 11.5 mph - N/A   Clear
2:35 AM 32.0 °F 22.5 °F 26.6 °F 80% 30.18 in 10.0 mi South 12.7 mph - N/A   Clear
2:55 AM 32.0 °F 23.0 °F 26.6 °F 80% 30.19 in 10.0 mi South 11.5 mph - N/A   Clear
3:15 AM 32.0 °F 23.0 °F 26.6 °F 80% 30.18 in 10.0 mi South 11.5 mph - N/A   Clear
3:35 AM 32.0 °F 23.6 °F 26.6 °F 80% 30.18 in 10.0 mi South 10.4 mph - N/A   Clear
3:55 AM 32.0 °F 23.0 °F 26.6 °F 80% 30.18 in 10.0 mi South 11.5 mph - N/A   Clear
4:15 AM 32.0 °F 23.6 °F 26.6 °F 80% 30.18 in 10.0 mi South 10.4 mph - N/A   Clear
4:35 AM 32.0 °F 24.2 °F 26.6 °F 80% 30.18 in 10.0 mi South 9.2 mph - N/A   Clear
4:55 AM 32.0 °F 25.6 °F 26.6 °F 80% 30.18 in 10.0 mi South 6.9 mph - N/A   Clear
5:15 AM 30.2 °F 22.6 °F 26.6 °F 86% 30.19 in 10.0 mi SSE 8.1 mph - N/A   Clear
5:35 AM 32.0 °F 24.8 °F 26.6 °F 80% 30.20 in 10.0 mi South 8.1 mph - N/A   Clear
5:55 AM 32.0 °F 24.2 °F 26.6 °F 80% 30.20 in 10.0 mi South 9.2 mph - N/A   Clear
6:15 AM 32.0 °F 23.0 °F 24.8 °F 75% 30.20 in 10.0 mi South 11.5 mph - N/A   Clear
6:35 AM 32.0 °F 22.5 °F 24.8 °F 75% 30.20 in 10.0 mi South 12.7 mph - N/A   Clear
6:55 AM 32.0 °F 24.2 °F 24.8 °F 75% 30.22 in 10.0 mi South 9.2 mph - N/A   Clear
7:15 AM 32.0 °F 22.5 °F 23.0 °F 69% 30.22 in 10.0 mi South 12.7 mph - N/A   Clear
7:35 AM 32.0 °F 24.2 °F 23.0 °F 69% 30.23 in 10.0 mi South 9.2 mph - N/A   Clear
7:55 AM 32.0 °F 24.8 °F 23.0 °F 69% 30.23 in 10.0 mi South 8.1 mph - N/A   Clear
8:15 AM 35.6 °F 27.5 °F 21.2 °F 56% 30.24 in 10.0 mi South 11.5 mph - N/A   Clear
8:35 AM 37.4 °F 30.3 °F 23.0 °F 56% 30.25 in 10.0 mi South 10.4 mph - N/A   Clear
8:55 AM 37.4 °F 29.8 °F 21.2 °F 52% 30.26 in 10.0 mi South 11.5 mph - N/A   Clear
9:15 AM 39.2 °F 31.6 °F 21.2 °F 49% 30.26 in 10.0 mi South 12.7 mph - N/A   Clear
9:35 AM 41.0 °F 33.9 °F 23.0 °F 49% 30.27 in 10.0 mi SSW 12.7 mph - N/A   Clear
9:55 AM 42.8 °F 36.6 °F 23.0 °F 46% 30.27 in 10.0 mi SSW 11.5 mph - N/A   Clear
10:15 AM 44.6 °F 39.7 °F 23.0 °F 43% 30.27 in 10.0 mi SSW 9.2 mph - N/A   Clear
10:35 AM 44.6 °F 38.4 °F 23.0 °F 43% 30.27 in 10.0 mi SSW 12.7 mph 16.1 mph N/A   Clear
10:55 AM 46.4 °F 40.7 °F 23.0 °F 40% 30.26 in 10.0 mi SSW 12.7 mph - N/A   Clear
11:15 AM 48.2 °F - 23.0 °F 37% 30.26 in 10.0 mi SW 11.5 mph - N/A   Clear
11:35 AM 48.2 °F - 23.0 °F 37% 30.25 in 10.0 mi SSW 10.4 mph - N/A   Clear
11:55 AM 50.0 °F - 23.0 °F 35% 30.26 in 10.0 mi SSW 12.7 mph - N/A   Clear
12:15 PM 50.0 °F - 24.8 °F 37% 30.25 in 10.0 mi South 12.7 mph - N/A   Clear
12:35 PM 50.0 °F - 24.8 °F 37% 30.24 in 10.0 mi SSW 13.8 mph - N/A   Clear
12:55 PM 51.8 °F - 24.8 °F 35% 30.24 in 10.0 mi SSW 12.7 mph - N/A   Clear
1:15 PM 53.6 °F - 24.8 °F 33% 30.24 in 10.0 mi SSW 10.4 mph - N/A   Clear
1:35 PM 53.6 °F - 24.8 °F 33% 30.23 in 10.0 mi South 13.8 mph - N/A   Clear
1:55 PM 53.6 °F - 24.8 °F 33% 30.22 in 10.0 mi South 9.2 mph - N/A   Clear
2:15 PM 53.6 °F - 24.8 °F 33% 30.22 in 10.0 mi South 12.7 mph 17.3 mph N/A   Clear
2:35 PM 55.4 °F - 24.8 °F 31% 30.21 in 10.0 mi South 13.8 mph - N/A   Clear
2:55 PM 55.4 °F - 24.8 °F 31% 30.20 in 10.0 mi South 12.7 mph - N/A   Clear
3:15 PM 55.4 °F - 24.8 °F 31% 30.20 in 10.0 mi SSW 11.5 mph - N/A   Clear
3:35 PM 55.4 °F - 24.8 °F 31% 30.21 in 10.0 mi SSW 10.4 mph - N/A   Clear
3:55 PM 55.4 °F - 24.8 °F 31% 30.21 in 10.0 mi SSW 10.4 mph - N/A   Clear
4:15 PM 55.4 °F - 24.8 °F 31% 30.21 in 10.0 mi SSW 9.2 mph - N/A   Clear
4:35 PM 55.4 °F - 23.0 °F 29% 30.21 in 10.0 mi SSW 11.5 mph - N/A   Clear
4:55 PM 53.6 °F - 23.0 °F 30% 30.20 in 10.0 mi SSW 10.4 mph - N/A   Clear
5:15 PM 53.6 °F - 23.0 °F 30% 30.21 in 10.0 mi SSW 13.8 mph - N/A   Clear
5:35 PM 50.0 °F - 23.0 °F 35% 30.21 in 10.0 mi SSW 11.5 mph - N/A   Clear
5:55 PM 48.2 °F - 23.0 °F 37% 30.22 in 10.0 mi SSW 11.5 mph - N/A   Clear
6:15 PM 46.4 °F 40.7 °F 23.0 °F 40% 30.23 in 10.0 mi SSW 12.7 mph - N/A   Clear
6:35 PM 46.4 °F 41.1 °F 23.0 °F 40% 30.23 in 10.0 mi South 11.5 mph - N/A   Clear
6:55 PM 44.6 °F 38.8 °F 21.2 °F 39% 30.23 in 10.0 mi SSW 11.5 mph - N/A   Clear
7:15 PM 44.6 °F 37.2 °F 21.2 °F 39% 30.22 in 10.0 mi South 17.3 mph - N/A   Clear
7:35 PM 42.8 °F 35.1 °F 21.2 °F 42% 30.23 in 10.0 mi South 16.1 mph - N/A   Clear
7:55 PM 41.0 °F 33.5 °F 19.4 °F 42% 30.23 in 10.0 mi South 13.8 mph - N/A   Clear
8:15 PM 41.0 °F 33.5 °F 19.4 °F 42% 30.23 in 10.0 mi South 13.8 mph - N/A   Clear
8:35 PM 39.2 °F 31.6 °F 21.2 °F 49% 30.24 in 10.0 mi South 12.7 mph - N/A   Clear
8:55 PM 39.2 °F 30.8 °F 21.2 °F 49% 30.24 in 10.0 mi South 15.0 mph - N/A   Scattered Clouds
9:15 PM 41.0 °F 33.9 °F 23.0 °F 49% 30.24 in 10.0 mi South 12.7 mph - N/A   Overcast
9:35 PM 39.2 °F 31.6 °F 21.2 °F 49% 30.24 in 10.0 mi South 12.7 mph - N/A   Mostly Cloudy
9:55 PM 37.4 °F 29.8 °F 23.0 °F 56% 30.24 in 10.0 mi SSW 11.5 mph - N/A   Clear
10:15 PM 39.2 °F 30.8 °F 23.0 °F 52% 30.24 in 10.0 mi SSW 15.0 mph - N/A   Clear
10:35 PM 39.2 °F 32.5 °F 23.0 °F 52% 30.25 in 10.0 mi South 10.4 mph - N/A   Clear
10:55 PM 37.4 °F 28.9 °F 23.0 °F 56% 30.25 in 10.0 mi South 13.8 mph - N/A   Clear
11:15 PM 39.2 °F 29.8 °F 23.0 °F 52% 30.25 in 10.0 mi South 18.4 mph 25.3 mph N/A   Clear
11:35 PM 39.2 °F 30.8 °F 24.8 °F 56% 30.27 in 10.0 mi South 15.0 mph 25.3 mph N/A   Scattered Clouds
11:55 PM 39.2 °F 30.8 °F 24.8 °F 56% 30.26 in 10.0 mi South 15.0 mph - N/A   Mostly Cloudy